Dewpoint
37 37 38 39 38 38 38 38 39 39 39 39 39 39 39 39 39 39 39 40 40 40 40 40 41 41 41 41 41 40 40 40 40 40 40 40 40 40 40 41 41 41 42 42 43 44 44 44 44 44 44 44 44 45 45 45 45 45 44 44 45 45 45 44 44 44 44 45 45
36 37 37 38 38 38 37 37 38 38 38 38 38 38 38 38 38 38 39 39 39 40 40 40 40 40 41 41 40 40 40 39 39 39 40 40 40 40 40 40 40 41 41 42 42 43 43 43 43 43 42 43 43 43 44 44 44 44 43 43 44 44 44 44 44 44 44 44 45
36 36 36 36 36 36 36 36 36 36 36 36 37 37 37 37 37 37 38 38 39 39 39 39 40 40 40 40 40 40 40 39 39 39 39 39 39 40 40 40 40 40 41 41 42 42 42 43 42 42 42 41 42 42 43 43 43 43 42 42 43 43 43 43 43 43 44 44 44
36 36 36 36 35 35 35 35 35 35 35 35 36 36 36 36 36 36 37 37 38 38 38 38 39 40 40 40 40 40 40 40 39 39 39 39 39 39 39 40 40 40 40 41 41 41 42 42 42 41 41 41 41 42 42 42 42 42 42 42 42 42 42 42 43 43 43 43 44
35 35 35 35 35 34 34 34 34 33 33 34 34 34 34 35 35 36 36 36 36 37 37 38 38 39 39 39 40 40 40 39 39 39 38 38 39 39 39 39 39 39 40 40 40 41 41 41 41 41 41 41 41 41 42 42 42 41 41 41 41 41 41 42 42 42 43 43 43
35 35 34 34 34 34 33 33 33 33 33 33 33 33 33 33 34 34 34 35 36 36 37 37 38 38 38 38 39 39 39 39 39 39 38 38 38 39 39 39 39 39 40 40 40 40 41 41 41 41 41 41 41 41 42 42 42 41 40 40 40 40 40 41 41 42 42 42 42
34 34 34 34 34 33 33 33 33 33 33 33 32 32 32 33 33 33 34 34 35 36 36 37 37 37 37 38 38 38 39 39 39 38 38 38 38 38 39 39 39 39 39 39 39 40 40 40 40 41 41 41 40 40 41 41 41 41 40 40 40 40 40 40 41 41 41 41 41
33 33 33 34 34 33 33 33 33 32 32 32 32 32 32 32 33 33 33 33 34 35 36 36 36 36 36 37 37 38 38 39 39 38 38 38 38 38 38 38 39 39 39 39 39 39 39 40 40 40 40 40 40 40 40 40 40 40 40 40 40 40 40 40 40 40 40 40 40
32 33 33 33 33 32 32 32 32 31 31 31 32 32 32 32 32 32 32 33 34 34 35 35 36 36 36 36 37 37 38 39 39 38 38 38 37 37 38 38 38 38 39 39 39 38 38 38 38 39 39 39 39 39 39 39 39 39 40 40 40 40 39 39 39 39 39 39 39
31 32 32 31 31 31 32 31 31 31 31 31 31 31 32 32 32 32 32 33 34 34 34 35 35 35 36 36 36 37 37 38 39 39 38 38 37 37 37 37 37 38 38 39 38 38 37 37 37 38 38 38 38 38 38 38 38 38 38 39 39 39 39 39 38 37 37 38 38
31 31 31 31 31 31 31 31 31 31 31 31 31 31 31 32 31 32 32 33 33 33 33 34 35 35 35 35 36 36 37 37 38 38 38 37 37 37 37 37 37 37 38 38 38 38 37 36 36 36 37 37 37 37 37 37 37 37 37 37 37 38 38 38 38 37 37 36 37
31 31 31 32 31 31 31 30 31 31 31 31 32 32 31 31 31 32 32 32 31 32 33 34 34 35 35 35 35 36 36 37 37 38 38 37 37 36 36 36 36 36 37 37 37 37 37 36 36 36 36 36 36 36 36 36 36 36 36 36 36 36 36 37 37 37 36 36 36
31 31 31 31 31 31 31 31 31 31 31 31 31 32 32 31 32 32 32 31 31 32 33 34 34 34 34 35 35 35 35 36 36 37 37 37 37 36 36 36 36 36 36 36 37 37 36 36 36 35 35 35 35 35 35 35 35 35 34 34 35 35 35 36 36 36 36 36 36
30 30 31 31 31 31 31 31 31 30 30 30 31 31 31 31 32 32 31 31 31 32 32 33 33 34 34 34 34 34 35 35 36 36 37 37 37 36 36 36 35 35 35 36 36 36 36 36 35 35 35 34 34 34 35 35 34 34 34 33 33 34 34 35 35 36 36 35 35
28 28 29 29 30 30 30 30 30 29 29 28 28 29 29 30 31 31 31 31 31 31 31 31 31 31 33 34 34 34 34 34 35 35 36 37 37 36 36 36 35 35 35 35 35 35 35 35 35 34 34 34 34 34 34 34 34 33 33 33 33 33 33 34 34 35 35 34 34
25 26 26 27 27 27 28 28 28 28 28 27 26 26 26 27 27 28 29 29 29 28 27 27 27 28 30 31 32 33 33 34 34 34 35 36 36 36 36 36 35 34 34 34 34 34 34 34 34 34 33 33 33 33 33 33 33 33 33 32 32 32 32 33 33 34 34 34 33
24 24 24 24 24 24 25 26 27 27 27 28 27 26 26 26 26 27 27 27 27 26 26 27 27 27 27 28 29 31 31 32 33 33 34 35 36 36 36 36 35 34 34 33 33 33 33 34 34 34 33 33 32 32 32 32 32 32 32 32 32 32 32 32 32 33 33 33 33
24 24 23 23 23 23 24 24 25 27 27 28 28 27 26 26 27 27 27 27 27 26 26 26 27 27 27 27 28 28 29 31 31 31 33 34 35 36 36 36 35 34 34 33 32 32 32 33 33 33 33 32 32 32 32 32 32 32 32 32 32 32 32 32 32 32 32 32 33
24 23 23 23 23 23 23 24 24 25 26 27 27 27 27 27 27 28 28 27 27 27 27 26 26 26 27 27 27 27 28 29 30 31 32 33 34 35 36 36 35 35 34 33 32 32 32 32 32 32 32 32 32 32 31 31 31 31 31 31 31 31 31 31 31 32 32 32 32
23 23 23 23 23 23 23 23 23 23 23 24 25 25 26 27 27 28 28 28 28 28 28 27 26 25 25 26 26 27 27 28 30 31 31 32 33 34 35 36 35 35 34 32 31 31 31 31 31 31 31 31 31 31 31 31 31 31 31 31 31 31 31 31 31 31 31 31 32
23 23 23 23 23 23 23 23 23 23 23 23 23 23 24 24 25 25 25 26 26 26 26 26 25 25 25 25 25 25 26 26 27 29 31 31 32 33 35 36 35 35 34 32 30 30 31 31 31 31 30 31 31 31 31 31 31 30 30 31 31 31 31 31 31 31 31 31 31
23 23 23 23 23 23 23 23 22 22 23 23 23 23 23 24 24 24 24 24 25 25 25 25 25 25 24 24 24 24 24 25 26 27 28 29 30 32 34 35 34 34 34 33 31 31 31 31 30 30 29 28 29 30 30 30 30 29 29 29 29 30 30 30 30 30 31 31 31
22 22 22 22 22 23 23 23 22 22 22 22 23 23 23 23 24 24 24 24 24 24 24 25 25 24 24 24 24 24 24 24 25 25 26 27 28 30 31 32 32 32 33 33 32 31 30 29 28 28 27 26 28 29 28 28 28 28 27 27 28 28 29 29 29 29 30 30 30
22 22 22 22 22 22 22 22 22 22 22 22 22 22 23 23 23 23 23 23 23 23 24 24 24 24 23 23 23 23 23 23 24 24 25 26 27 29 30 31 31 30 30 31 31 31 30 29 27 26 26 25 26 26 26 25 25 25 25 24 25 27 27 28 28 28 28 28 29
21 21 21 21 21 21 21 21 21 21 21 22 22 22 22 22 22 22 22 22 22 22 22 23 23 24 23 22 22 22 23 22 23 24 25 26 27 28 30 32 31 30 29 30 32 33 32 31 29 27 25 25 25 25 25 25 25 24 24 24 24 24 25 25 25 26 26 26 26
20 20 20 20 20 20 20 20 20 20 20 20 21 21 21 21 22 22 22 22 21 21 21 22 22 24 24 22 22 22 22 22 22 23 24 25 26 27 29 31 32 31 31 31 33 33 33 33 32 30 27 25 25 25 25 25 25 25 24 24 24 23 23 23 23 24 24 24 24
19 19 18 19 19 19 19 18 18 18 18 19 19 19 19 19 21 21 21 20 20 20 20 21 22 23 24 22 21 21 21 22 22 23 23 24 25 26 27 29 32 34 34 33 34 34 33 33 33 32 30 26 25 25 25 25 24 24 24 23 23 23 22 22 22 23 23 23 23
17 17 17 17 18 18 17 17 18 18 18 18 18 18 18 19 19 20 19 19 19 20 20 20 21 22 22 22 21 20 20 21 22 22 22 23 24 24 25 27 30 34 36 35 35 34 33 33 32 32 31 28 26 24 23 23 23 23 23 23 22 22 22 22 22 22 22 22 22
15 15 15 16 16 16 16 17 17 17 17 17 17 18 19 19 19 19 19 19 19 19 19 19 21 21 21 20 20 20 20 20 21 22 22 22 23 23 24 25 28 32 36 36 36 35 33 32 32 32 31 30 27 25 23 23 22 22 22 22 22 22 22 22 22 22 22 22 22
14 14 15 15 15 15 15 15 15 16 16 17 17 18 18 19 18 18 18 18 18 19 19 19 20 20 19 18 19 19 20 20 21 21 22 22 22 23 23 24 26 31 35 36 36 35 33 32 31 31 31 30 28 26 23 22 21 20 21 21 21 21 21 21 21 21 22 22 22
13 14 14 14 14 14 15 15 15 15 16 17 17 17 18 18 18 18 18 18 18 20 20 19 18 18 18 18 18 19 19 19 20 21 21 21 22 22 22 22 24 29 34 36 35 35 34 32 31 31 30 30 28 26 24 23 21 20 20 20 20 20 21 21 21 21 22 22 22
13 13 14 14 14 14 14 14 14 15 15 15 16 17 17 17 17 17 18 18 18 18 18 18 18 18 18 18 18 18 19 19 20 21 22 21 20 20 21 22 22 27 33 36 35 34 34 32 31 30 30 29 29 26 23 24 22 21 20 19 20 20 21 22 22 22 21 22 22
13 13 13 13 14 14 14 14 14 14 15 15 16 16 16 16 17 17 18 19 18 18 17 17 17 17 17 17 18 18 19 20 20 21 22 21 20 21 21 22 22 27 33 36 35 34 34 32 31 30 29 29 28 26 23 23 23 22 20 20 20 20 21 21 22 22 22 22 22
13 13 13 13 13 13 13 13 14 14 15 15 16 16 16 16 16 17 18 19 18 17 17 17 17 17 17 17 17 18 19 21 20 19 19 20 20 20 21 21 21 27 32 36 35 34 34 32 31 29 29 28 27 26 24 24 24 23 21 21 21 22 22 22 22 22 22 22 22
12 13 13 13 13 13 13 13 13 14 15 15 15 15 15 15 15 16 18 20 19 17 16 17 17 17 17 17 17 18 18 19 18 19 19 19 19 20 20 20 21 26 31 35 35 35 34 33 31 30 28 27 27 27 27 27 26 25 25 24 24 25 24 24 23 23 22 22 23
11 12 12 13 13 13 12 13 13 14 14 14 15 15 15 14 15 16 18 21 18 16 16 16 16 16 16 16 16 18 18 17 18 18 19 20 19 18 18 19 21 24 29 33 35 35 34 34 32 30 28 27 27 27 27 26 26 26 26 25 24 24 24 24 23 23 23 22 23
11 11 12 12 12 12 12 12 13 13 13 13 14 14 14 14 14 15 17 19 15 15 15 15 15 16 16 16 15 16 16 16 17 18 19 20 18 18 18 19 19 22 27 31 34 34 34 34 33 31 28 26 26 26 26 25 25 25 24 23 23 23 23 23 23 22 22 22 23
10 11 11 12 12 12 12 12 12 13 13 13 13 13 13 13 13 15 16 18 14 13 14 14 14 14 15 17 16 15 15 16 17 18 17 17 17 18 18 18 19 21 25 30 33 34 34 34 33 31 29 26 25 25 24 24 24 24 23 22 22 22 22 22 22 22 22 22 24
11 11 11 11 12 12 12 11 12 12 12 13 13 13 13 13 13 15 16 16 13 13 13 13 14 14 16 19 16 15 14 14 15 16 17 15 17 19 20 18 18 21 24 29 32 33 33 33 33 32 30 26 25 24 23 24 24 23 23 22 22 22 22 22 22 22 22 23 25
11 11 11 10 11 11 11 11 12 12 12 12 12 13 13 14 15 15 15 13 12 12 13 14 14 15 17 21 16 14 13 14 13 14 16 17 18 21 22 19 18 19 23 27 31 33 33 33 32 32 30 27 25 23 23 24 24 23 22 22 21 21 21 21 22 22 22 22 24
10 11 12 11 11 11 11 11 11 11 11 12 12 13 15 16 14 13 13 12 13 14 15 16 16 16 17 20 16 13 13 14 14 14 15 17 18 20 21 18 17 18 21 25 30 32 33 32 32 32 31 27 25 23 23 23 24 23 22 22 21 21 21 21 21 22 22 22 22